Location: Bocchiglicro
(39.4167°N, 16.7500°E)
Time: 18:10:57
(UTC+00:00)

COBE Rocket - Pass Details

Date: 07 June 2020
Orbit: 680 x 782 km, 97.1° (Epoch: 04 July)

Event Time Altitude Azimuth Distance (km) Brightness Sun altitude
Exits shadow 01:37:42 - 161° (SSE) 2,522 6.4 -16.7°
Reaches altitude 10° 01:38:20 10° 161° (SSE) 2,275 6.2 -16.7°
Maximum altitude 01:43:21 75° 76° (ENE) 799 4.2 -16.0°
Drops below altitude 10° 01:48:31 10° 352° (N) 2,336 7.1 -15.4°
Sets 01:50:52 0° 351° (N) 3,273 7.9 -15.1°
